[[{"header":{"parameterUnit":"m.s-1","parameterCategory":2,"la1":30.2992,"la2":30.254,"lo1":-89.0895,"lo2":-89.0443,"dy":0.0025,"dx":0.0025,"nx":19,"ny":19,"refTime":"2026-04-11T09:00:00:Z","depth":"0","parameterNumber":2,"parameterNumberName":"U-component_of_CURRENTS"},"data":[0,0,0,0.1204,0.1202,0.1165,0.1166,0.129,0.1291,0,0,0,0,0,0,0,0,0,0,0,0.123,0.1229,0.1204,0.1202,0.1165,0.1166,0.129,0.1291,0,0,0,0,0,0,0,0,0,0,0,0.123,0.123,0.1229,0.1202,0.1165,0.1166,0.1289,0.1282,0,0,0,0,0,0,0,0,0,0,0.1299,0.1298,0.123,0.1229,0.1201,0.1165,0.1166,0.128,0.1282,0.1346,0,0.1323,0,0.1295,0.1301,0.1301,0,0,0,0.1232,0.1295,0.1267,0.1229,0.12,0.1165,0.119,0.128,0.1283,0.135,0.1324,0.1327,0.1297,0.1301,0.1302,0.1431,0.1431,0,0,0.1234,0.125,0.1264,0.1268,0.1172,0.1191,0.1189,0.128,0.1291,0.1325,0.1329,0.1299,0.1302,0.1303,0.143,0.1431,0,0,0,0.122,0.1252,0.1219,0.1265,0.1236,0.1189,0.1187,0.1287,0.127,0.133,0.13,0.1303,0.1305,0.143,0.143,0.1434,0,0,0,0.1222,0.1241,0.122,0.1233,0.1232,0.1239,0.1192,0.1264,0.1272,0.13,0.1303,0.1306,0.143,0.143,0.1433,0.1438,0,0,0,0.1235,0.1243,0.1227,0.1234,0.12,0.1235,0.1225,0.1265,0.1254,0.1301,0.1307,0.1429,0.143,0.1432,0.1437,0.1454,0,0,0,0.127,0.1223,0.1228,0.1193,0.1199,0.121,0.1224,0.1253,0.1293,0.1304,0.143,0.143,0.1432,0.1436,0.1453,0.1426,0.1428,0,0,0.1223,0.1219,0.12,0.1202,0.1198,0.1219,0.1263,0.1312,0.133,0.1416,0.1418,0.1433,0.1437,0.1453,0.1474,0.1474,0,0,0,0.1194,0.118,0.1184,0.1184,0.1204,0.1263,0.1302,0.1327,0.1384,0.1348,0.1449,0.1452,0.1462,0.1444,0.1445,0.1144,0.1434,0.1434,0.1434,0.1161,0.117,0.117,0.1198,0.1234,0.1307,0.1352,0.1401,0.1419,0.1438,0.1466,0.1497,0.1479,0.148,0.1169,0.1477,0.1477,0.1477,0.1478,0.1116,0.1111,0.1177,0.1176,0.1265,0.1325,0.1422,0.1438,0.1496,0.1491,0.15,0.1463,0.1481,0.1149,0.1478,0.1478,0.1478,0.1478,0.1478,0.1087,0.1086,0.1107,0.1163,0.1244,0.134,0.1407,0.147,0.1503,0.1519,0.1504,0.1504,0.1202,0.1523,0.1523,0.1523,0.1523,0.1523,0.1523,0.1042,0.1065,0.1096,0.1156,0.121,0.1291,0.1405,0.1445,0.1503,0.1515,0.1515,0.1172,0.1512,0.1498,0.1525,0.1525,0.1525,0.1524,0.1524,0.0981,0.1023,0.1063,0.1112,0.1216,0.1252,0.1356,0.1419,0.1469,0.1477,0.1137,0.1514,0.1513,0.1512,0.1499,0.1524,0.1524,0.1524,0.1524,0.0967,0.0982,0.1064,0.1132,0.1199,0.1244,0.1233,0.1239,0.1123,0.0982,0.0963,0.0888,0.0901,0.0858,0.0872,0.0844,0.0702,0.0701,0.0699,0.0971,0.1002,0.1056,0.1125,0.1198,0.121,0.1139,0.0967,0.0722,0.0632,0.054,0.0576,0.0432,0.0478,0.0389,0.0432,0.0381,0,0]},{"header":{"parameterUnit":"m.s-1","parameterCategory":2,"la1":30.2992,"la2":30.254,"lo1":-89.0895,"lo2":-89.0443,"dy":0.0025,"dx":0.0025,"nx":19,"ny":19,"refTime":"2026-04-11T09:00:00:Z","depth":"0","parameterNumber":3,"parameterNumberName":"V-component_of_CURRENTS"},"data":[0,0,0,-0.0549,-0.0544,-0.0413,-0.0413,-0.0725,-0.0728,0,0,0,0,0,0,0,0,0,0,0,-0.0629,-0.0627,-0.0549,-0.0543,-0.0412,-0.0413,-0.0724,-0.0728,0,0,0,0,0,0,0,0,0,0,0,-0.063,-0.0628,-0.0625,-0.0542,-0.0412,-0.0413,-0.0723,-0.0719,0,0,0,0,0,0,0,0,0,0,-0.0793,-0.0791,-0.0628,-0.0625,-0.0541,-0.0412,-0.0413,-0.0714,-0.072,-0.09,0,-0.0841,0,-0.0759,-0.0754,-0.0755,0,0,0,-0.061,-0.0786,-0.0715,-0.0625,-0.0539,-0.0412,-0.049,-0.0714,-0.0721,-0.0909,-0.0844,-0.0851,-0.0764,-0.0756,-0.0758,-0.1006,-0.1006,0,0,-0.0617,-0.0663,-0.0709,-0.0717,-0.0466,-0.0494,-0.0485,-0.0713,-0.0738,-0.0845,-0.0855,-0.0769,-0.0759,-0.0762,-0.1006,-0.1006,0,0,0,-0.0593,-0.0668,-0.0584,-0.071,-0.0628,-0.0489,-0.0479,-0.0728,-0.0687,-0.0857,-0.0772,-0.0761,-0.0766,-0.1007,-0.1006,-0.0913,0,0,0,-0.0601,-0.0647,-0.0587,-0.0621,-0.0618,-0.0612,-0.049,-0.0673,-0.0692,-0.0771,-0.0761,-0.0769,-0.1007,-0.1006,-0.0916,-0.0873,0,0,0,-0.0642,-0.0653,-0.0615,-0.0622,-0.0525,-0.0603,-0.0577,-0.0673,-0.0642,-0.0755,-0.077,-0.1007,-0.1007,-0.0918,-0.0878,-0.0855,0,0,0,-0.0728,-0.0634,-0.0616,-0.0522,-0.0525,-0.0478,-0.0574,-0.0596,-0.068,-0.0763,-0.1007,-0.1006,-0.0919,-0.0881,-0.0858,-0.0722,-0.0698,0,0,-0.0647,-0.0627,-0.0571,-0.0547,-0.047,-0.0503,-0.0525,-0.0666,-0.0748,-0.098,-0.0981,-0.0915,-0.0878,-0.0856,-0.0701,-0.0678,0,0,0,-0.057,-0.0528,-0.0506,-0.0457,-0.044,-0.0488,-0.0584,-0.0638,-0.0765,-0.0775,-0.0934,-0.0914,-0.0903,-0.0827,-0.0809,-0.0697,-0.1005,-0.1005,-0.1005,-0.0567,-0.0522,-0.0463,-0.0431,-0.0444,-0.0513,-0.0559,-0.0668,-0.0773,-0.0786,-0.0851,-0.0789,-0.0707,-0.0692,-0.0579,-0.087,-0.0869,-0.0869,-0.0869,-0.0474,-0.0413,-0.0445,-0.0364,-0.044,-0.0491,-0.0599,-0.0639,-0.0727,-0.0787,-0.0781,-0.0749,-0.0666,-0.0553,-0.0863,-0.0864,-0.0865,-0.0865,-0.0866,-0.044,-0.0399,-0.0379,-0.035,-0.0381,-0.0458,-0.0467,-0.0556,-0.0639,-0.0637,-0.0591,-0.0592,-0.0482,-0.0642,-0.0642,-0.0642,-0.0641,-0.0641,-0.0641,-0.0403,-0.0376,-0.035,-0.0323,-0.0323,-0.0331,-0.0387,-0.0403,-0.0438,-0.0482,-0.0481,-0.0431,-0.0721,-0.0718,-0.0636,-0.0637,-0.0638,-0.0638,-0.0638,-0.0283,-0.0329,-0.0276,-0.027,-0.0258,-0.0209,-0.0237,-0.0195,-0.0232,-0.0217,-0.0161,-0.0409,-0.0431,-0.0446,-0.0437,-0.0288,-0.0288,-0.0288,-0.0288,-0.0258,-0.0257,-0.0235,-0.022,-0.019,-0.0161,-0.0032,0.0024,0.0057,0.0107,0.0045,0.0054,0.0035,0.0037,0.0012,0.0028,0.0292,0.0292,0.0293,-0.0233,-0.023,-0.0204,-0.0194,-0.0158,-0.0089,0.0066,0.0217,0.0321,0.0321,0.0178,0.0153,0.0164,0.0124,0.0117,0.0073,0.0091,0,0]}],[{"header":{"parameterUnit":"m.s-1","parameterCategory":2,"la1":30.2992,"la2":30.254,"lo1":-89.0895,"lo2":-89.0443,"dy":0.0025,"dx":0.0025,"nx":19,"ny":19,"refTime":"2026-04-11T09:00:00:Z","depth":"2","parameterNumber":2,"parameterNumberName":"U-component_of_CURRENTS"},"data":[0,0,0,0.102,0.1021,0.1067,0.1067,0.1274,0.1276,0,0,0,0,0,0,0,0,0,0,0,0.1012,0.1012,0.102,0.1022,0.1067,0.1067,0.1273,0.1276,0,0,0,0,0,0,0,0,0,0,0,0.1011,0.1012,0.1013,0.1022,0.1067,0.1067,0.1273,0.1202,0,0,0,0,0,0,0,0,0,0,0.1139,0.1103,0.1012,0.1013,0.1022,0.1067,0.1067,0.1197,0.1206,0.1296,0,0.1306,0,0.1298,0.1293,0.1294,0,0,0,0.1022,0.1095,0.1114,0.1013,0.1022,0.1067,0.1047,0.1201,0.1212,0.1309,0.1309,0.1315,0.1302,0.1295,0.1296,0.1503,0.1503,0,0,0.1019,0.1018,0.1106,0.1121,0.1044,0.1045,0.1048,0.1206,0.1222,0.1309,0.1319,0.1305,0.1297,0.1299,0.1503,0.1503,0,0,0,0.1012,0.1017,0.1028,0.1113,0.1111,0.1046,0.105,0.1215,0.122,0.1321,0.1308,0.1298,0.1301,0.1502,0.1503,0.1492,0,0,0,0.101,0.1012,0.1027,0.1027,0.1107,0.1142,0.1055,0.1209,0.1226,0.1307,0.1298,0.1304,0.1502,0.1503,0.1491,0.1491,0,0,0,0.1008,0.1012,0.102,0.1027,0.1045,0.1138,0.1151,0.1211,0.1219,0.1294,0.1305,0.1502,0.1502,0.1491,0.149,0.1482,0,0,0,0.1,0.1009,0.102,0.1036,0.1045,0.1109,0.1149,0.121,0.1271,0.13,0.1502,0.1503,0.1491,0.149,0.1482,0.1301,0.1288,0,0,0.1001,0.1009,0.1018,0.1029,0.1063,0.1102,0.1169,0.1261,0.1316,0.1461,0.1464,0.1491,0.149,0.1482,0.1348,0.1332,0,0,0,0.1011,0.102,0.1033,0.1059,0.1107,0.1158,0.1233,0.1296,0.1401,0.1356,0.1511,0.1511,0.1506,0.1397,0.1386,0.1507,0.1507,0.1506,0.1506,0.1003,0.1024,0.1047,0.1077,0.113,0.1221,0.1279,0.1383,0.1434,0.1474,0.1517,0.1524,0.1409,0.1398,0.1531,0.1531,0.1531,0.1531,0.1531,0.1005,0.1018,0.1064,0.1094,0.1161,0.1244,0.1364,0.1402,0.1508,0.1537,0.1532,0.1409,0.1384,0.153,0.1531,0.1531,0.1531,0.1531,0.1531,0.0995,0.1004,0.103,0.1087,0.1171,0.1253,0.1331,0.1424,0.1498,0.1518,0.1395,0.1393,0.1503,0.1513,0.1513,0.1513,0.1512,0.1512,0.1512,0.0973,0.0999,0.1023,0.1081,0.1124,0.119,0.1318,0.1349,0.1363,0.1376,0.1374,0.1518,0.1518,0.1503,0.1512,0.1512,0.1512,0.1512,0.1512,0.0962,0.0976,0.1003,0.1033,0.11,0.1089,0.1188,0.1167,0.1222,0.1179,0.1285,0.1291,0.1275,0.1282,0.1262,0.1208,0.1208,0.1208,0.1208,0.0954,0.0961,0.099,0.1013,0.104,0.1044,0.0935,0.0838,0.0892,0.0865,0.088,0.0827,0.0846,0.0806,0.0824,0.0794,0.0619,0.0618,0.0617,0.0956,0.0961,0.0967,0.0982,0.1008,0.0957,0.0748,0.0435,0.0371,0.0596,0.0798,0.1164,0.1125,0.1141,0.1113,0.1129,0.1095,0,0]},{"header":{"parameterUnit":"m.s-1","parameterCategory":2,"la1":30.2992,"la2":30.254,"lo1":-89.0895,"lo2":-89.0443,"dy":0.0025,"dx":0.0025,"nx":19,"ny":19,"refTime":"2026-04-11T09:00:00:Z","depth":"2","parameterNumber":3,"parameterNumberName":"V-component_of_CURRENTS"},"data":[0,0,0,0.0133,0.0133,0.0119,0.0119,0.0203,0.0203,0,0,0,0,0,0,0,0,0,0,0,0.0133,0.0132,0.0134,0.0133,0.0119,0.0119,0.0202,0.0203,0,0,0,0,0,0,0,0,0,0,0,0.0133,0.0132,0.0132,0.0133,0.0119,0.0119,0.0202,0.019,0,0,0,0,0,0,0,0,0,0,0.0191,0.0178,0.0133,0.0132,0.0133,0.0119,0.0119,0.0188,0.0191,0.0235,0,0.0218,0,0.0213,0.021,0.0211,0,0,0,0.0142,0.0176,0.0166,0.0132,0.0132,0.0119,0.0128,0.0189,0.0192,0.0238,0.0219,0.0221,0.0215,0.0211,0.0212,0.0303,0.0303,0,0,0.0143,0.0143,0.0164,0.0167,0.0112,0.0128,0.0127,0.0189,0.0192,0.0219,0.0223,0.0216,0.0212,0.0213,0.0303,0.0303,0,0,0,0.0139,0.0144,0.0131,0.0164,0.0154,0.0128,0.0127,0.0189,0.0182,0.0224,0.0217,0.0212,0.0214,0.0302,0.0303,0.0316,0,0,0,0.014,0.0141,0.0131,0.0133,0.0152,0.0159,0.0125,0.0177,0.0184,0.0217,0.0212,0.0215,0.0302,0.0303,0.0315,0.0315,0,0,0,0.0136,0.0141,0.0132,0.0133,0.0122,0.0157,0.0154,0.0178,0.0181,0.0211,0.0215,0.0302,0.0302,0.0314,0.0314,0.0372,0,0,0,0.0149,0.0131,0.0132,0.0121,0.0122,0.0143,0.0153,0.0163,0.0184,0.0213,0.0302,0.0303,0.0314,0.0313,0.037,0.0485,0.0501,0,0,0.0135,0.013,0.0126,0.0126,0.015,0.0147,0.0195,0.021,0.0213,0.029,0.0292,0.0315,0.0314,0.0372,0.0514,0.0529,0,0,0,0.0129,0.0125,0.0133,0.0144,0.0162,0.0224,0.0234,0.0238,0.0271,0.0225,0.0322,0.0321,0.0357,0.0423,0.0435,0.0305,0.0305,0.0305,0.0305,0.0119,0.0133,0.0153,0.0193,0.0221,0.0267,0.0302,0.0319,0.0308,0.0316,0.0336,0.0394,0.0464,0.0474,0.0345,0.0345,0.0345,0.0345,0.0345,0.0125,0.014,0.018,0.0197,0.0271,0.0306,0.0387,0.0379,0.0413,0.0374,0.0409,0.0439,0.0489,0.0347,0.0346,0.0346,0.0346,0.0346,0.0346,0.0128,0.014,0.0152,0.0209,0.026,0.0328,0.0404,0.0419,0.0429,0.0442,0.0527,0.0528,0.0414,0.0453,0.0453,0.0454,0.0454,0.0454,0.0454,0.0126,0.0148,0.0179,0.0225,0.0262,0.0335,0.0405,0.0472,0.0547,0.0554,0.0556,0.0431,0.0427,0.0421,0.0458,0.0457,0.0457,0.0456,0.0456,0.0134,0.0143,0.0201,0.0242,0.0343,0.0453,0.0507,0.0666,0.0699,0.0779,0.065,0.0644,0.0659,0.065,0.065,0.0744,0.0744,0.0744,0.0744,0.0146,0.0151,0.0248,0.0335,0.0438,0.0531,0.0688,0.0794,0.0851,0.0838,0.0834,0.0821,0.0808,0.0829,0.0816,0.0818,0.0955,0.0955,0.0955,0.0177,0.0204,0.0282,0.0366,0.0489,0.0621,0.077,0.0804,0.084,0.0956,0.0791,0.0774,0.0742,0.0728,0.0746,0.073,0.0728,0,0]}],[{"header":{"parameterUnit":"m.s-1","parameterCategory":2,"la1":30.2992,"la2":30.254,"lo1":-89.0895,"lo2":-89.0443,"dy":0.0025,"dx":0.0025,"nx":19,"ny":19,"refTime":"2026-04-11T09:00:00:Z","depth":"4","parameterNumber":2,"parameterNumberName":"U-component_of_CURRENTS"},"data":[0,0,0,0.0458,0.0458,0.0449,0.0449,0.0356,0.0355,0,0,0,0,0,0,0,0,0,0,0,0.0466,0.0467,0.0458,0.0458,0.0449,0.0449,0.0356,0.0355,0,0,0,0,0,0,0,0,0,0,0,0.0466,0.0467,0.0467,0.0458,0.0449,0.0449,0.0356,0.038,0,0,0,0,0,0,0,0,0,0,0.0398,0.0425,0.0467,0.0467,0.0458,0.0449,0.0449,0.0382,0.0379,0.0341,0,0.0356,0,0.0354,0.0348,0.0348,0,0,0,0.0445,0.0429,0.0424,0.0467,0.0458,0.0449,0.0449,0.0381,0.0377,0.0336,0.0354,0.0351,0.0352,0.0347,0.0347,0.0288,0.0288,0,0,0.0446,0.0459,0.0428,0.0423,0.0475,0.045,0.0449,0.0379,0.0382,0.0354,0.0349,0.0351,0.0347,0.0346,0.0288,0.0288,0,0,0,0.0456,0.046,0.0459,0.0426,0.0431,0.045,0.0449,0.0385,0.0385,0.0348,0.035,0.0346,0.0345,0.0288,0.0288,0.0343,0,0,0,0.0455,0.0466,0.0459,0.0466,0.0434,0.042,0.0457,0.039,0.0382,0.035,0.0346,0.0344,0.0288,0.0288,0.0341,0.0333,0,0,0,0.0463,0.0467,0.0472,0.0467,0.0468,0.0422,0.0417,0.0389,0.0383,0.0348,0.0344,0.0288,0.0288,0.034,0.0332,0.0367,0,0,0,0.0467,0.0478,0.0473,0.0474,0.0468,0.0446,0.0418,0.0404,0.038,0.0346,0.0288,0.0288,0.0339,0.033,0.0366,0.0245,0,0,0,0.0478,0.048,0.0476,0.047,0.0451,0.0445,0.0419,0.0386,0.0368,0.0302,0.0301,0.0342,0.0331,0.0367,0.0264,0,0,0,0,0.0475,0.0476,0.0468,0.0458,0.0441,0.0424,0.0399,0.0399,0.0384,0.0358,0.0333,0.0323,0.0345,0.0269,0.029,0.029,0.029,0.0289,0.0289,0.0499,0.0477,0.0461,0.0437,0.0429,0.0408,0.0402,0.0393,0.0379,0.0402,0.0363,0.0414,0.0336,0.0373,0.0373,0.0374,0.0374,0.0374,0.0374,0.0494,0.0474,0.0454,0.0438,0.0419,0.0406,0.0401,0.0413,0.0417,0.0406,0.0426,0.0325,0.0379,0.0378,0.0377,0.0377,0.0376,0.0376,0.0376,0.0498,0.0483,0.0476,0.0447,0.043,0.0415,0.0413,0.0427,0.0455,0.0463,0.0395,0.0443,0.0445,0.0495,0.0495,0.0495,0.0496,0.0496,0.0496,0.0503,0.0488,0.0468,0.0448,0.0431,0.0431,0.043,0.0425,0.0449,0.0415,0.0483,0.0455,0.0451,0.0451,0.0498,0.0498,0.0497,0.0497,0.0497,0.0491,0.0487,0.0459,0.0439,0.0387,0.0375,0.0404,0.0374,0.0374,0.0357,0.0394,0.0398,0.0362,0.036,0.0355,0.0377,0.0375,0.0374,0,0.0479,0.0473,0.042,0.0371,0.0321,0.0323,0.0278,0.0278,0.0306,0.0306,0.0387,0.0431,0.0432,0.0393,0.0389,0.0383,0,0,0,0.0454,0.0442,0.0394,0.0339,0.0268,0.023,0.0258,0.0237,0.0319,0.0249,0.0339,0.0348,0.0385,0.0504,0.0459,0.0455,0.0452,0,0]},{"header":{"parameterUnit":"m.s-1","parameterCategory":2,"la1":30.2992,"la2":30.254,"lo1":-89.0895,"lo2":-89.0443,"dy":0.0025,"dx":0.0025,"nx":19,"ny":19,"refTime":"2026-04-11T09:00:00:Z","depth":"4","parameterNumber":3,"parameterNumberName":"V-component_of_CURRENTS"},"data":[0,0,0,0.0386,0.0387,0.0446,0.0446,0.0652,0.0654,0,0,0,0,0,0,0,0,0,0,0,0.0371,0.0371,0.0386,0.0387,0.0446,0.0446,0.0651,0.0654,0,0,0,0,0,0,0,0,0,0,0,0.0371,0.0371,0.0371,0.0387,0.0446,0.0446,0.0651,0.058,0,0,0,0,0,0,0,0,0,0,0.0508,0.0472,0.0371,0.0371,0.0387,0.0445,0.0446,0.0575,0.0584,0.0655,0,0.065,0,0.0648,0.0668,0.0669,0,0,0,0.0409,0.0464,0.047,0.0371,0.0387,0.0445,0.0425,0.0579,0.059,0.0668,0.0652,0.0659,0.0652,0.067,0.0671,0.0847,0.0847,0,0,0.0406,0.04,0.0462,0.0476,0.0387,0.0423,0.0427,0.0584,0.0598,0.0653,0.0663,0.0655,0.0671,0.0673,0.0846,0.0847,0,0,0,0.0381,0.0398,0.0398,0.0469,0.0464,0.0424,0.0429,0.0592,0.0588,0.0665,0.0657,0.0673,0.0675,0.0846,0.0846,0.0866,0,0,0,0.038,0.0382,0.0396,0.0397,0.046,0.0512,0.0433,0.0577,0.0594,0.0656,0.0673,0.0677,0.0846,0.0846,0.0865,0.0871,0,0,0,0.0371,0.0381,0.038,0.0396,0.0409,0.0508,0.0515,0.058,0.059,0.0669,0.0678,0.0845,0.0846,0.0864,0.0869,0.0889,0,0,0,0.0375,0.0367,0.038,0.039,0.0408,0.048,0.0513,0.0589,0.0656,0.0674,0.0846,0.0846,0.0863,0.0868,0.0887,0.0791,0,0,0,0.0364,0.0365,0.0375,0.0387,0.0442,0.0474,0.0563,0.0658,0.069,0.0807,0.081,0.0865,0.0869,0.0888,0.0831,0,0,0,0,0.0372,0.0379,0.0401,0.0437,0.0491,0.0572,0.0647,0.0684,0.0776,0.0727,0.0874,0.0875,0.0887,0.0827,0.085,0.085,0.085,0.0849,0.0849,0.0361,0.0394,0.0437,0.0494,0.0555,0.0656,0.0717,0.0784,0.0818,0.0848,0.0898,0.0934,0.0872,0.0906,0.0906,0.0906,0.0906,0.0906,0.0906,0.0371,0.0398,0.0474,0.0524,0.0622,0.0708,0.0819,0.0842,0.0922,0.0923,0.0934,0.086,0.0909,0.0908,0.0908,0.0908,0.0907,0.0907,0.0907,0.0361,0.038,0.0423,0.0527,0.0637,0.0746,0.0835,0.0903,0.094,0.0964,0.0909,0.095,0.0942,0.0978,0.0978,0.0978,0.0978,0.0978,0.0978,0.0331,0.0376,0.0438,0.054,0.0617,0.0723,0.0854,0.0892,0.095,0.0922,0.0978,0.0958,0.0955,0.0946,0.098,0.098,0.0979,0.0979,0.0979,0.032,0.0349,0.0428,0.0502,0.066,0.0721,0.0835,0.0874,0.0908,0.0895,0.0897,0.09,0.0885,0.0884,0.0871,0.0885,0.0883,0.0882,0,0.0321,0.0338,0.0453,0.0555,0.0656,0.0738,0.0766,0.081,0.084,0.0817,0.0915,0.0917,0.0918,0.09,0.0898,0.0883,0,0,0,0.0351,0.0376,0.0454,0.0547,0.0662,0.0712,0.0772,0.0767,0.0825,0.0818,0.0854,0.0862,0.0935,0.0986,0.097,0.0967,0.0951,0,0]}]]